FW2698 Weather Reports


Display with metric or nautical units.
time (UTC)temp
F
wind
direction
speed
MPH
gust
MPH
rain 1hr
in
rain 24hr
in
rain mn
in
humidity
%
barometer
mb
20260906123039 66 148 0.0 4.0 0.00 0.00 0.00 94 1016.9
20260906121607 66 136 0.0 3.0 0.00 0.00 0.00 94 1016.7
20260906120114 65 92 0.0 2.0 0.00 0.00 0.00 94 1016.7
20260906114559 65 141 0.0 1.0 0.00 0.00 0.00 94 1016.5
20260906113018 65 129 0.0 3.0 0.00 0.00 0.00 94 1016.0
20260906111520 65 78 0.0 4.0 0.00 0.00 0.00 94 1016.0
20260906110049 65 111 0.0 1.0 0.00 0.00 0.00 94 1016.0
20260906104550 65 118 0.0 3.0 0.00 0.00 0.00 94 1015.9
20260906103052 64 153 0.0 1.0 0.00 0.00 0.00 94 1015.9
20260906101547 64 73 0.0 3.0 0.00 0.00 0.00 94 1015.6
20260906100057 64 127 0.0 3.0 0.00 0.00 0.00 94 1015.4
20260906094550 64 92 0.0 1.0 0.00 0.00 0.00 94 1015.5
20260906093044 64 115 0.0 1.0 0.00 0.00 0.00 94 1015.3
20260906091543 64 101 0.0 1.0 0.00 0.00 0.00 94 1015.5
20260906090042 65 82 0.0 1.0 0.00 0.00 0.00 94 1015.2
20260906084542 65 102 0.0 0.0 0.00 0.00 0.00 94 1015.3
20260906083040 65 100 0.0 1.0 0.00 0.00 0.00 94 1015.2
20260906081540 65 92 0.0 1.0 0.00 0.00 0.00 93 1015.2
20260906080038 66 96 0.0 1.0 0.00 0.00 0.00 93 1015.2
20260906074538 66 104 0.0 1.0 0.00 0.00 0.00 93 1015.3
20260906073034 67 97 0.0 0.0 0.00 0.00 0.00 93 1015.4
20260906071532 67 92 0.0 1.0 0.00 0.00 0.00 93 1015.4
20260906070030 68 80 0.0 1.0 0.00 0.00 0.00 92 1015.5
20260906064529 68 80 0.0 1.0 0.00 0.00 0.00 92 1015.5
20260906063031 68 115 0.0 1.0 0.00 0.00 0.00 92 1015.6
20260906061527 68 107 0.0 0.0 0.00 0.00 0.00 92 1015.7
20260906060025 68 107 0.0 1.0 0.00 0.00 0.00 92 1015.5
20260906054542 69 128 0.0 2.0 0.00 0.00 0.00 92 1015.3
20260906053021 69 101 1.0 5.0 0.00 0.00 0.00 91 1015.3
20260906051529 69 125 0.0 4.0 0.00 0.00 0.00 91 1015.2
20260906050027 69 111 0.0 1.0 0.00 0.00 0.00 91 1015.2
20260906044517 69 121 0.0 2.0 0.00 0.00 0.00 91 1015.2
20260906043014 69 118 0.0 4.0 0.00 0.00 0.00 91 1014.9
20260906041512 69 165 0.0 4.0 0.00 0.00 0.00 90 1014.7
20260906040010 70 128 0.0 1.0 0.00 0.00 0.00 89 1014.6
20260906034509 70 120 0.0 1.0 0.00 0.00 0.00 88 1014.3
20260906033007 71 129 0.0 3.0 0.00 0.00 0.00 88 1014.2
20260906031516 71 128 0.0 3.0 0.00 0.00 0.00 89 1014.1
20260906030010 70 133 0.0 2.0 0.00 0.00 0.00 89 1014.0
20260906024515 70 103 0.0 4.0 0.00 0.00 0.00 89 1014.0
20260906023001 70 113 0.0 3.0 0.00 0.00 0.00 90 1013.7
20260906021502 70 118 0.0 5.0 0.00 0.00 0.00 91 1013.7
20260906020002 70 154 0.0 5.0 0.00 0.00 0.00 90 1013.6
20260906014600 70 90 2.0 6.0 0.00 0.00 0.00 89 1013.6
20260906013104 71 106 0.0 6.0 0.00 0.00 0.00 88 1013.8
20260906011557 71 80 0.0 6.0 0.00 0.00 0.00 87 1013.7
20260906010055 72 122 0.0 8.0 0.00 0.00 0.00 86 1013.6
20260906004553 73 121 0.0 4.0 0.00 0.00 0.00 86 1013.2
20260906003052 74 134 0.0 8.0 0.00 0.00 0.00 85 1013.2
20260906001551 76 89 0.0 3.0 0.00 0.00 0.00 85 1013.1
20260906000059 76 127 0.0 7.0 0.00 0.00 0.00 84 1013.0
20260905234554 78 101 0.0 3.0 0.00 0.00 0.00 81 1013.0
20260905233053 81 121 0.0 1.0 0.00 0.00 0.00 73 1012.8
20260905231549 81 134 0.0 1.0 0.00 0.00 0.00 75 1012.5
20260905230048 82 134 0.0 1.0 0.00 0.00 0.00 74 1012.3
20260905224548 82 99 0.0 1.0 0.00 0.00 0.00 72 1012.3
20260905223047 83 100 0.0 2.0 0.00 0.00 0.00 72 1012.3
20260905221546 83 122 0.0 1.0 0.00 0.00 0.00 74 1012.2
20260905220045 81 84 0.0 1.0 0.00 0.00 0.00 76 1012.2
20260905214545 83 108 0.0 2.0 0.00 0.00 0.00 72 1012.2
20260905213046 82 83 0.0 3.0 0.00 0.00 0.00 74 1012.2
20260905211600 81 117 0.0 6.0 0.00 0.00 0.00 76 1012.0
20260905210053 81 54 0.0 1.0 0.00 0.00 0.00 76 1012.5
20260905204543 79 105 0.0 3.0 0.00 0.00 0.00 79 1012.6
20260905203040 78 96 0.0 3.0 0.00 0.00 0.00 82 1012.7
20260905201549 78 118 0.0 1.0 0.00 0.00 0.00 83 1012.6
20260905200040 78 333 0.0 3.0 0.00 0.00 0.00 83 1012.8
20260905194539 78 100 0.0 1.0 0.00 0.00 0.00 83 1012.8
20260905193039 78 119 1.0 5.0 0.00 0.00 0.00 82 1012.8
20260905191538 79 93 0.0 5.0 0.00 0.00 0.00 81 1012.7
20260905190038 79 147 0.0 6.0 0.00 0.00 0.00 82 1012.7
20260905184537 80 107 1.0 7.0 0.00 0.00 0.00 81 1012.8
20260905183037 80 135 0.0 6.0 0.00 0.00 0.00 80 1012.8
20260905181537 80 70 0.0 7.0 0.00 0.00 0.00 80 1013.0
20260905180035 81 102 0.0 4.0 0.00 0.00 0.00 80 1012.8
20260905174536 82 92 1.0 7.0 0.00 0.00 0.00 77 1012.7
20260905173052 82 110 0.0 7.0 0.00 0.00 0.00 78 1012.7
20260905171536 81 333 0.0 5.0 0.00 0.00 0.00 80 1012.8
20260905170032 81 93 0.0 4.0 0.00 0.00 0.00 81 1012.8
20260905164529 80 75 0.0 3.0 0.00 0.00 0.00 83 1012.9
20260905163026 79 116 0.0 3.0 0.00 0.00 0.00 85 1013.0
20260905161510 78 110 0.0 3.0 0.00 0.00 0.00 87 1013.0
20260905160043 77 122 0.0 1.0 0.00 0.00 0.00 87 1012.9
20260905154505 75 132 0.0 3.0 0.00 0.00 0.00 90 1013.0
20260905153040 75 113 0.0 4.0 0.00 0.00 0.00 90 1013.0
20260905151511 75 125 0.0 5.0 0.00 0.00 0.00 91 1012.8
20260905150049 74 127 0.0 5.0 0.00 0.00 0.00 91 1012.5
20260905144548 74 75 0.0 4.0 0.00 0.00 0.00 91 1012.3
20260905143050 73 115 0.0 4.0 0.00 0.00 0.00 92 1012.0
20260905141547 73 125 0.0 3.0 0.00 0.00 0.00 92 1012.1
20260905140047 73 136 0.0 5.0 0.00 0.00 0.00 92 1012.2
20260905134556 73 134 1.0 6.0 0.00 0.00 0.00 92 1012.1
20260905133053 74 51 0.0 3.0 0.00 0.00 0.00 91 1012.0
20260905131543 74 119 0.0 3.0 0.00 0.00 0.00 91 1011.9
20260905130043 74 79 0.0 2.0 0.00 0.00 0.00 92 1012.1
20260905124542 73 96 0.0 1.0 0.00 0.00 0.00 92 1011.9